TimeCDT,TemperatureF,Dew PointF,Humidity,Sea Level PressureIn,VisibilityMPH,Wind Direction,Wind SpeedMPH,Gust SpeedMPH,PrecipitationIn,Events,Conditions,WindDirDegrees,DateUTC
12:15 AM,35.8,34.5,95,30.06,10.0,Calm,Calm,-,N/A,,Clear,0,2013-05-07 05:15:00
12:35 AM,35.6,34.9,97,30.06,10.0,Calm,Calm,-,N/A,,Clear,0,2013-05-07 05:35:00
12:55 AM,35.6,34.9,97,30.06,10.0,Calm,Calm,-,N/A,,Clear,0,2013-05-07 05:55:00
1:15 AM,36.1,34.9,95,30.07,10.0,Calm,Calm,-,N/A,,Clear,0,2013-05-07 06:15:00
1:35 AM,35.1,34.2,97,30.07,10.0,Calm,Calm,-,N/A,,Clear,0,2013-05-07 06:35:00
1:55 AM,34.7,34.0,97,30.07,10.0,Calm,Calm,-,N/A,,Clear,0,2013-05-07 06:55:00
2:15 AM,34.0,33.6,99,30.07,10.0,Calm,Calm,-,N/A,,Clear,0,2013-05-07 07:15:00
2:35 AM,35.1,34.9,99,30.07,7.0,Calm,Calm,-,N/A,,Clear,0,2013-05-07 07:35:00
2:55 AM,33.3,33.1,99,30.06,10.0,Calm,Calm,-,N/A,,Clear,0,2013-05-07 07:55:00
3:15 AM,32.9,32.5,99,30.06,10.0,Calm,Calm,-,N/A,,Clear,0,2013-05-07 08:15:00
3:35 AM,33.8,33.8,100,30.07,5.0,Calm,Calm,-,N/A,,Clear,0,2013-05-07 08:35:00
3:55 AM,33.6,33.4,99,30.07,2.0,Calm,Calm,-,N/A,,Clear,0,2013-05-07 08:55:00
4:15 AM,32.5,32.5,100,30.07,4.0,Calm,Calm,-,N/A,,Clear,0,2013-05-07 09:15:00
4:35 AM,33.1,33.1,100,30.07,1.5,Calm,Calm,-,N/A,,Mist,0,2013-05-07 09:35:00
5:15 AM,31.8,31.6,99,30.07,10.0,Calm,Calm,-,N/A,,Mostly Cloudy,0,2013-05-07 10:15:00
5:35 AM,32.4,32.2,99,30.07,10.0,Calm,Calm,-,N/A,,Mostly Cloudy,0,2013-05-07 10:35:00
5:55 AM,32.9,32.7,99,30.08,10.0,Calm,Calm,-,N/A,,Scattered Clouds,0,2013-05-07 10:55:00
6:15 AM,32.2,32.0,99,30.08,10.0,Calm,Calm,-,N/A,,Clear,0,2013-05-07 11:15:00
6:35 AM,33.6,33.3,99,30.08,10.0,Calm,Calm,-,N/A,,Clear,0,2013-05-07 11:35:00
6:55 AM,37.2,36.5,97,30.08,10.0,Calm,Calm,-,N/A,,Clear,0,2013-05-07 11:55:00
7:15 AM,40.1,37.4,90,30.09,10.0,Calm,Calm,-,N/A,,Clear,0,2013-05-07 12:15:00
7:35 AM,42.1,37.8,85,30.09,10.0,Calm,Calm,-,N/A,,Clear,0,2013-05-07 12:35:00
7:55 AM,44.1,38.3,80,30.09,10.0,Calm,Calm,-,N/A,,Clear,0,2013-05-07 12:55:00
8:15 AM,46.4,39.2,76,30.09,10.0,Calm,Calm,-,N/A,,Clear,0,2013-05-07 13:15:00
8:35 AM,48.4,39.4,71,30.09,10.0,Calm,Calm,-,N/A,,Clear,0,2013-05-07 13:35:00
8:55 AM,50.5,40.5,68,30.09,10.0,NE,3.5,-,N/A,,Clear,40,2013-05-07 13:55:00
9:15 AM,52.2,40.6,65,30.09,10.0,ENE,5.8,-,N/A,,Clear,70,2013-05-07 14:15:00
9:35 AM,53.1,41.4,64,30.08,10.0,NE,3.5,-,N/A,,Clear,50,2013-05-07 14:35:00
9:55 AM,54.9,42.3,63,30.08,10.0,NNE,4.6,-,N/A,,Clear,20,2013-05-07 14:55:00
10:15 AM,55.6,42.6,62,30.08,10.0,ENE,4.6,-,N/A,,Clear,60,2013-05-07 15:15:00
10:35 AM,57.4,43.3,59,30.07,10.0,ENE,6.9,-,N/A,,Clear,60,2013-05-07 15:35:00
10:55 AM,57.7,44.2,61,30.07,10.0,ENE,5.8,-,N/A,,Clear,60,2013-05-07 15:55:00
11:15 AM,57.6,44.2,61,30.07,10.0,East,5.8,-,N/A,,Clear,80,2013-05-07 16:15:00
11:35 AM,57.4,44.2,62,30.06,10.0,ENE,5.8,-,N/A,,Clear,60,2013-05-07 16:35:00
11:55 AM,57.7,43.7,60,30.05,10.0,ENE,6.9,-,N/A,,Clear,70,2013-05-07 16:55:00
12:15 PM,58.1,44.1,60,30.05,10.0,ENE,6.9,-,N/A,,Clear,60,2013-05-07 17:15:00
12:35 PM,58.8,43.9,58,30.04,10.0,ENE,10.4,-,N/A,,Clear,60,2013-05-07 17:35:00
12:55 PM,60.1,45.3,58,30.04,10.0,ENE,9.2,-,N/A,,Clear,70,2013-05-07 17:55:00
1:15 PM,55.9,43.5,63,30.04,10.0,ENE,10.4,-,N/A,,Clear,60,2013-05-07 18:15:00
1:35 PM,54.9,42.8,64,30.04,10.0,NE,9.2,-,N/A,,Clear,40,2013-05-07 18:35:00
1:55 PM,55.8,42.8,62,30.03,10.0,NE,10.4,-,N/A,,Scattered Clouds,40,2013-05-07 18:55:00
2:15 PM,53.8,42.6,66,30.03,10.0,NE,9.2,-,N/A,,Scattered Clouds,50,2013-05-07 19:15:00
2:35 PM,54.3,42.6,65,30.02,10.0,NE,9.2,-,N/A,,Clear,50,2013-05-07 19:35:00
2:55 PM,53.4,41.4,64,30.01,10.0,ENE,10.4,-,N/A,,Clear,60,2013-05-07 19:55:00
3:15 PM,53.2,42.3,66,30.01,10.0,NE,11.5,-,N/A,,Clear,40,2013-05-07 20:15:00
3:35 PM,52.7,41.7,66,30.01,10.0,ENE,9.2,-,N/A,,Clear,60,2013-05-07 20:35:00
3:55 PM,53.1,42.1,66,30.01,10.0,NE,8.1,-,N/A,,Clear,40,2013-05-07 20:55:00
4:15 PM,53.1,41.9,66,30.00,10.0,ENE,8.1,-,N/A,,Clear,70,2013-05-07 21:15:00
4:35 PM,52.7,42.1,67,30.00,10.0,NE,6.9,-,N/A,,Scattered Clouds,50,2013-05-07 21:35:00
4:55 PM,52.5,41.9,67,30.00,10.0,ENE,8.1,-,N/A,,Scattered Clouds,70,2013-05-07 21:55:00
5:15 PM,52.2,41.7,68,29.99,10.0,NE,8.1,-,N/A,,Scattered Clouds,50,2013-05-07 22:15:00
5:35 PM,52.0,41.2,67,29.99,10.0,ENE,6.9,-,N/A,,Mostly Cloudy,70,2013-05-07 22:35:00
5:55 PM,52.0,42.1,69,29.99,10.0,ENE,5.8,-,N/A,,Mostly Cloudy,60,2013-05-07 22:55:00
6:15 PM,50.9,42.6,73,29.99,10.0,ENE,5.8,-,N/A,,Scattered Clouds,60,2013-05-07 23:15:00
6:35 PM,50.4,42.3,74,29.99,10.0,ENE,4.6,-,N/A,,Clear,60,2013-05-07 23:35:00
6:55 PM,51.4,42.8,72,29.98,10.0,NE,5.8,-,N/A,,Clear,40,2013-05-07 23:55:00
7:15 PM,50.0,42.6,76,29.98,10.0,NE,6.9,-,N/A,,Scattered Clouds,50,2013-05-08 00:15:00
7:35 PM,48.7,42.1,78,29.98,10.0,ENE,5.8,-,N/A,,Clear,60,2013-05-08 00:35:00
7:55 PM,47.7,41.5,79,29.98,10.0,ENE,3.5,-,N/A,,Clear,70,2013-05-08 00:55:00
8:15 PM,46.8,41.4,81,29.99,10.0,Calm,Calm,-,N/A,,Clear,0,2013-05-08 01:15:00
8:35 PM,45.5,41.0,84,29.99,10.0,Calm,Calm,-,N/A,,Clear,0,2013-05-08 01:35:00
8:55 PM,44.6,40.6,86,29.99,10.0,NE,4.6,-,N/A,,Clear,50,2013-05-08 01:55:00
9:15 PM,43.7,40.5,88,29.99,10.0,Calm,Calm,-,N/A,,Clear,0,2013-05-08 02:15:00
9:35 PM,43.2,40.3,90,29.99,10.0,ENE,3.5,-,N/A,,Clear,60,2013-05-08 02:35:00
9:55 PM,43.0,40.3,90,30.00,10.0,ENE,3.5,-,N/A,,Clear,70,2013-05-08 02:55:00
10:15 PM,42.6,40.3,91,30.00,10.0,Calm,Calm,-,N/A,,Clear,0,2013-05-08 03:15:00
10:35 PM,41.7,39.9,93,30.00,10.0,Calm,Calm,-,N/A,,Clear,0,2013-05-08 03:35:00
10:55 PM,38.8,37.6,95,30.00,10.0,NNE,3.5,-,N/A,,Clear,30,2013-05-08 03:55:00
11:15 PM,41.0,39.7,95,30.00,10.0,NE,3.5,-,N/A,,Clear,40,2013-05-08 04:15:00
11:35 PM,40.6,39.2,95,30.00,10.0,Calm,Calm,-,N/A,,Clear,0,2013-05-08 04:35:00
11:55 PM,35.6,35.1,98,30.00,7.0,Calm,Calm,-,N/A,,Clear,0,2013-05-08 04:55:00